GW1174 Weather Reports


time (UTC)temp
F
wind
direction
speed
knots
gust
knots
rain 1hr
in
rain 24hr
in
rain mn
in
humidity
%
barometer
mb
20260505064517 62 0.0 0.0 0.00 0.00 0.00 76 1008.4
20260505063517 62 0.0 1.7 0.00 0.00 0.00 76 1008.5
20260505062516 62 0.0 2.6 0.00 0.00 0.00 77 1008.7
20260505061516 61 0.0 0.9 0.00 0.00 0.00 79 1008.5
20260505060536 60 0.0 0.9 0.00 0.00 0.00 80 1008.5
20260505055517 59 0.0 1.7 0.00 0.00 0.00 81 1008.4
20260505054516 58 0.0 0.9 0.00 0.00 0.00 82 1008.7
20260505053556 57 0.0 3.5 0.00 0.00 0.00 83 1008.5
20260505052516 57 0.0 1.7 0.00 0.00 0.00 83 1008.6
20260505051516 56 0.0 0.9 0.00 0.00 0.00 84 1008.5
20260505050516 56 0.0 0.0 0.00 0.00 0.00 84 1008.5
20260505041516 56 0 0.9 4.3 0.00 0.00 0.00 83 1008.5
20260505040516 56 23 0.9 4.3 0.00 0.00 0.00 82 1008.5
20260505035516 56 0.0 0.9 0.00 0.00 0.00 81 1008.6
20260505034536 56 0.0 1.7 0.00 0.00 0.00 81 1008.7
20260505033516 57 0.0 0.9 0.00 0.00 0.00 81 1008.9
20260505032516 57 0 0.9 3.5 0.00 0.00 0.00 81 1008.9
20260505031516 56 23 1.7 4.3 0.00 0.00 0.00 82 1009.1
20260505030516 56 0.0 1.7 0.00 0.00 0.00 82 1009.0
20260505025516 56 0.0 1.7 0.00 0.00 0.00 82 1009.2
20260505024516 56 0.0 0.9 0.00 0.00 0.00 82 1009.4
20260505023516 56 0.0 1.7 0.00 0.00 0.00 81 1009.6
20260505022516 57 0.0 2.6 0.00 0.00 0.00 81 1009.7
20260505021516 57 0.0 0.0 0.00 0.00 0.00 80 1010.0
20260505020536 57 0.0 0.0 0.00 0.00 0.00 79 1009.9
20260505015536 58 293 2.6 7.0 0.00 0.00 0.00 79 1010.0
20260505014516 58 0.0 1.7 0.00 0.00 0.00 80 1009.9
20260505013516 58 23 0.9 2.6 0.00 0.00 0.00 79 1009.7
20260505012516 58 0.0 0.0 0.00 0.00 0.00 79 1009.8
20260505011516 58 0.0 1.7 0.00 0.00 0.00 78 1009.9
20260505010516 58 0.0 0.0 0.00 0.00 0.00 78 1010.1
20260505005536 58 0.0 0.0 0.00 0.00 0.00 78 1010.1
20260505004516 59 0.0 0.0 0.00 0.00 0.00 77 1010.5
20260505003516 59 0.0 3.5 0.00 0.00 0.00 76 1010.4
20260505002516 59 0.0 0.9 0.00 0.00 0.00 76 1010.6
20260505001516 59 0.0 0.0 0.00 0.00 0.00 75 1010.5
20260505000516 59 0.0 0.0 0.00 0.00 0.00 75 1010.7
20260504235515 59 0.0 0.0 0.00 0.00 0.00 74 1010.7
20260504234515 58 0.0 0.0 0.00 0.00 0.00 74 1010.8
20260504233516 58 0.0 0.0 0.00 0.00 0.00 74 1010.8
20260504232537 58 0.0 0.0 0.00 0.00 0.00 74 1010.8
20260504231536 58 0.0 0.0 0.00 0.00 0.00 74 1010.8
20260504230537 58 0.0 0.9 0.00 0.00 0.00 74 1010.9
20260504225518 58 0.0 0.0 0.00 0.00 0.00 74 1010.8
20260504224518 58 0.0 0.0 0.00 0.00 0.00 74 1011.0
20260504223537 58 0.0 0.9 0.00 0.00 0.00 74 1011.0
20260504222518 58 0.0 0.9 0.00 0.00 0.00 74 1010.9
20260504221517 59 0.0 0.0 0.00 0.00 0.00 73 1011.1
20260504220538 59 0.0 0.9 0.00 0.00 0.00 73 1011.0
20260504215516 59 0.0 1.7 0.00 0.00 0.00 72 1011.1
20260504214516 59 0.0 1.7 0.00 0.00 0.00 72 1011.2
20260504213516 59 0.0 0.0 0.00 0.00 0.00 72 1011.2
20260504212516 60 0.0 0.9 0.00 0.00 0.00 70 1011.3
20260504211557 60 0.0 0.9 0.00 0.00 0.00 70 1011.2
20260504210516 61 0.0 0.0 0.00 0.00 0.00 69 1011.4
20260504205516 61 0.0 0.0 0.00 0.00 0.00 68 1011.4
20260504204516 61 0.0 0.0 0.00 0.00 0.00 67 1011.5
20260504203516 61 0.0 0.0 0.00 0.00 0.00 67 1011.4
20260504202516 61 0.0 1.7 0.00 0.00 0.00 66 1011.5
20260504201516 62 0.0 0.0 0.00 0.00 0.00 66 1011.4
20260504200536 62 0.0 0.9 0.00 0.00 0.00 66 1011.4
20260504195517 62 0.0 0.9 0.00 0.00 0.00 65 1011.5
20260504194559 62 0.0 0.0 0.00 0.00 0.00 64 1011.5
20260504193516 63 0.0 0.0 0.00 0.00 0.00 64 1011.5
20260504192516 63 0.0 0.0 0.00 0.00 0.00 63 1011.6
20260504191516 64 0.0 0.0 0.00 0.00 0.00 62 1011.4
20260504190516 64 0.0 0.0 0.00 0.00 0.00 61 1011.5
20260504185516 64 0.0 0.0 0.00 0.00 0.00 61 1011.3
20260504184516 65 0.0 1.7 0.00 0.00 0.00 60 1011.3
20260504183519 65 0.0 0.0 0.00 0.00 0.00 59 1011.2
20260504182516 66 0.0 0.0 0.00 0.00 0.00 58 1011.1
20260504181516 66 0.0 0.0 0.00 0.00 0.00 57 1011.2
20260504180536 67 0.0 1.7 0.00 0.00 0.00 57 1011.2
20260504175556 68 0.0 1.7 0.00 0.00 0.00 55 1011.2
20260504174536 68 293 0.9 1.7 0.00 0.00 0.00 53 1011.1
20260504173516 69 0.0 1.7 0.00 0.00 0.00 51 1011.1
20260504172516 70 293 0.9 3.5 0.00 0.00 0.00 52 1011.1
20260504171516 70 0.0 0.0 0.00 0.00 0.00 50 1011.0
20260504170516 70 0.0 0.9 0.00 0.00 0.00 46 1011.1
20260504150517 72 0.0 2.6 0.00 0.00 0.00 41 1011.7
20260504140518 72 315 0.9 4.3 0.00 0.00 0.00 46 1012.1
20260504130517 72 158 1.7 5.2 0.00 0.00 0.00 42 1012.5
20260504110517 70 0.0 5.2 0.00 0.00 0.00 47 1013.4
20260504100537 69 248 2.6 6.1 0.00 0.00 0.00 45 1014.1
20260504081536 65 293 0.9 7.0 0.00 0.00 0.00 52 1014.2
20260504080516 66 0.0 2.6 0.00 0.00 0.00 53 1014.3